Regional Weather Roundup
Issued by NWS Sioux Falls, SD

Home | Current Version | Previous Version | Text Only | Print | Product List | Glossary On
Versions: 1 2 3 4 5 6 7 8 9 10 11 12 13 14 15 16 17 18 19 20 21 22 23 24 25 26 27 28 29 30 31 32 33 34 35 36 37 38 39 40 41 42 43 44 45 46 47 48 49 50
815
ASUS43 KFSD 221510
RWRFSD

WEATHER ROUNDUP FOR SE SOUTH DAKOTA/SW MINNESOTA/NW IOWA
NATIONAL WEATHER SERVICE SIOUX FALLS SD
1000 AM CDT SUN APR 22 2018

NOTE: "FAIR" INDICATES FEW OR NO CLOUDS BELOW 12,000 FEET WITH NO
SIGNIFICANT WEATHER AND OR OBSTRUCTIONS TO VISIBILITY.


SDZ038>040-050-052>070-221600-
SOUTHEAST SOUTH DAKOTA

CITY           SKY/WX    TMP DP  RH WIND       PRES   REMARKS
BROOKINGS      SUNNY     49  35  58 S10       30.31R
CHAMBERLAIN    SUNNY     49  41  71 SW5       30.26S
HURON          SUNNY     48  38  68 SE5       30.27F
MADISON        FAIR      46  41  81 S6        30.30S
MITCHELL       SUNNY     47  39  74 SE9       30.29S
SIOUX FALLS    MOSUNNY   50  35  56 E6        30.29F
WINNER         FAIR      49  36  61 S9        30.25S
YANKTON        SUNNY     48  35  60 E6        30.29F
$$

MNZ071-072-080-081-089-090-097-098-221600-
SOUTHWEST MINNESOTA

CITY           SKY/WX    TMP DP  RH WIND       PRES   REMARKS
JACKSON        CLOUDY    41  34  75 E5        30.33S
LUVERNE        SUNNY     50  36  57 E5        30.31F
MARSHALL       SUNNY     45  36  70 S7        30.34R
MONTEVIDEO     SUNNY     48  39  71 S5        30.33S
PIPESTONE      SUNNY    N/A N/A N/A SE6       30.30S
REDWOOD FALLS  SUNNY     46  37  71 SE6       30.34S
TRACY          SUNNY     47  38  71 S5        30.33R
WINDOM         SUNNY     48  28  46 E3        30.33S
WORTHINGTON    SUNNY     44  38  79 E6        30.32F
$$

IAZ001>003-012>014-020>022-031-032-NEZ013-014-SDZ071-221600-
NORTHWEST IOWA

CITY           SKY/WX    TMP DP  RH WIND       PRES   REMARKS
CHEROKEE       MOSUNNY   52  36  54 E9        30.30R
DENISON        CLOUDY    54  32  43 E13       30.26F
ESTHERVILLE    MOSUNNY   39  34  82 N3        30.32S
LE MARS        SUNNY     50  36  57 E9        30.29F
ORANGE CITY    CLOUDY    52  39  62 E8        30.30R
SHELDON        SUNNY     48  39  71 E10       30.29S
SIOUX CITY     MOSUNNY   54  35  48 VRB7      30.28F
SPENCER        SUNNY     48  37  65 E9        30.31S
STORM LAKE     SUNNY     50  37  62 E12       30.29R
$$

ABBREVIATIONS USED IN REMARKS
   TC - TEMPERATURE IN CELSIUS
  WCI - WIND CHILL INDEX
   HX - HEAT INDEX
  VSB - VISIBILITY





USA.gov is the U.S. government's official web portal to all federal, state and local government web resources and services.